Tracking 25693 objects as of 1-Jul-2022
HD Live streaming from Space Station
objects crossing your sky now

SL-8 DEB *

Track SL-8 DEB * now!
10-day predictions


NORAD ID: 14817
Int'l Code: 1976-098D
Perigee: 592.9 km
Apogee: 602.6 km
Inclination: 74.1 °
Period: 96.5 minutes
Semi major axis: 6968 km
RCS: 0.0066 m2 (small)
Launch date: September 29, 1976
Source: Commonwealth of Independent States (former USSR) (CIS)
Launch site: PLESETSK MISSILE AND SPACE COMPLEX (PKMTR)

Note: This is SATELLITE DEBRIS
aabbcc
Your satellite tracking list
Your tracking list is empty




NASA's NSSDC Master Catalog

Two Line Element Set (TLE):
1 14817U 76098D   22182.43336168  .00001712  00000-0  17110-3 0  9994
2 14817  74.0781 267.9971 0007019 198.6715 286.4625 14.92348068248243
Source of the keplerian elements: AFSPC